SKW5778 KASE-KDEN

Flight info

Callsign SKW5778
Flight time 0h 31m
Altitude 25000
Route LINDZ1 LINDZ IDENE JNETT SSKII4
Aircraft E75L/M-SDE3GILORVW/S

Departure

Time 2026-04-25 22:37
Airport Aspen-Pitkin County Airport (Sardy Field) (KASE)

Arrival

Time 2026-04-25 23:09
Airport Denver International Airport (KDEN)
Time Latitude Longitude Altitude Speed Heading
2026-04-25 22:17 39.21903 -106.86458 7819 ft 0 kts 71°
2026-04-25 22:28 39.21899 -106.86475 7819 ft 3 kts 74°
2026-04-25 22:28 39.21894 -106.86502 7819 ft 3 kts 78°
2026-04-25 22:29 39.21891 -106.86530 7819 ft 3 kts 88°
2026-04-25 22:29 39.21893 -106.86556 7819 ft 3 kts 119°
2026-04-25 22:29 39.21903 -106.86568 7819 ft 1 kts 160°
2026-04-25 22:32 39.21902 -106.86567 7819 ft 0 kts 160°
2026-04-25 22:32 39.21894 -106.86563 7819 ft 3 kts 160°
2026-04-25 22:33 39.21864 -106.86549 7819 ft 8 kts 160°
2026-04-25 22:33 39.21799 -106.86519 7819 ft 11 kts 160°
2026-04-25 22:33 39.21726 -106.86483 7819 ft 12 kts 160°
2026-04-25 22:33 39.21648 -106.86447 7816 ft 12 kts 160°
2026-04-25 22:34 39.21569 -106.86410 7819 ft 12 kts 160°
2026-04-25 22:34 39.21486 -106.86370 7819 ft 13 kts 160°
2026-04-25 22:34 39.21401 -106.86330 7819 ft 13 kts 160°
2026-04-25 22:34 39.21314 -106.86289 7816 ft 14 kts 159°
2026-04-25 22:35 39.21247 -106.86257 7816 ft 7 kts 163°
2026-04-25 22:35 39.21226 -106.86254 7819 ft 0 kts 181°
2026-04-25 22:35 39.21222 -106.86254 7819 ft 1 kts 184°
2026-04-25 22:35 39.21197 -106.86267 7818 ft 7 kts 218°
2026-04-25 22:36 39.21181 -106.86331 7815 ft 8 kts 296°
2026-04-25 22:36 39.21219 -106.86364 7815 ft 4 kts 338°
2026-04-25 22:36 39.21241 -106.86375 7819 ft 20 kts 340°
2026-04-25 22:36 39.21600 -106.86544 7821 ft 89 kts 339°
2026-04-25 22:37 39.22384 -106.86916 7816 ft 150 kts 339°
2026-04-25 22:37 39.23490 -106.87449 8104 ft 183 kts 341°
2026-04-25 22:37 39.24300 -106.87828 8643 ft 189 kts 341°
2026-04-25 22:37 39.25869 -106.88886 9903 ft 177 kts 330°
2026-04-25 22:38 39.26556 -106.89410 10566 ft 175 kts 330°
2026-04-25 22:38 39.27660 -106.90148 11182 ft 182 kts 330°
2026-04-25 22:38 39.28822 -106.90891 11772 ft 190 kts 331°
2026-04-25 22:38 39.29946 -106.91805 12301 ft 194 kts 306°
2026-04-25 22:39 39.30479 -106.93398 12870 ft 198 kts 279°
2026-04-25 22:39 39.30826 -106.95143 13507 ft 203 kts 281°
2026-04-25 22:39 39.31203 -106.96922 14200 ft 208 kts 281°
2026-04-25 22:39 39.31588 -106.98713 14983 ft 207 kts 281°
2026-04-25 22:40 39.31979 -107.00506 15651 ft 208 kts 281°
2026-04-25 22:40 39.32369 -107.02301 16340 ft 208 kts 281°
2026-04-25 22:40 39.32765 -107.04112 16933 ft 213 kts 282°
2026-04-25 22:40 39.33174 -107.05989 17322 ft 220 kts 282°
2026-04-25 22:41 39.33648 -107.07905 17734 ft 228 kts 287°
2026-04-25 22:41 39.34322 -107.09830 18110 ft 241 kts 295°
2026-04-25 22:41 39.35541 -107.11409 18506 ft 269 kts 325°
2026-04-25 22:41 39.37244 -107.12578 18953 ft 285 kts 326°
2026-04-25 22:42 39.39036 -107.13835 19405 ft 302 kts 325°
2026-04-25 22:42 39.41075 -107.14826 19879 ft 329 kts 347°
2026-04-25 22:42 39.43412 -107.14620 20576 ft 350 kts 11°
2026-04-25 22:42 39.45626 -107.13164 21186 ft 368 kts 36°
2026-04-25 22:43 39.47393 -107.10695 21762 ft 381 kts 53°
2026-04-25 22:43 39.48905 -107.07838 22315 ft 389 kts 56°
2026-04-25 22:43 39.50005 -107.04603 22808 ft 399 kts 77°
2026-04-25 22:43 39.50265 -107.00990 23273 ft 405 kts 96°
2026-04-25 22:44 39.49705 -106.97412 23741 ft 409 kts 112°
2026-04-25 22:44 39.48719 -106.93982 24190 ft 413 kts 115°
2026-04-25 22:44 39.47685 -106.90478 24669 ft 419 kts 114°
2026-04-25 22:44 39.46661 -106.86930 25104 ft 426 kts 114°
2026-04-25 22:45 39.45565 -106.83255 25106 ft 447 kts 115°
2026-04-25 22:45 39.44419 -106.79460 25100 ft 458 kts 115°
2026-04-25 22:45 39.43248 -106.75651 24960 ft 451 kts 115°
2026-04-25 22:45 39.42120 -106.71931 24895 ft 440 kts 115°
2026-04-25 22:46 39.41012 -106.68192 24962 ft 452 kts 114°
2026-04-25 22:46 39.39907 -106.64345 24984 ft 459 kts 114°
2026-04-25 22:46 39.38780 -106.60448 24967 ft 464 kts 114°
2026-04-25 22:46 39.37647 -106.56528 24942 ft 466 kts 114°
2026-04-25 22:47 39.36507 -106.52600 24944 ft 468 kts 114°
2026-04-25 22:47 39.35365 -106.48659 24932 ft 469 kts 114°
2026-04-25 22:47 39.34240 -106.44812 24929 ft 456 kts 115°
2026-04-25 22:47 39.33122 -106.41016 24961 ft 450 kts 114°
2026-04-25 22:48 39.32013 -106.37251 24989 ft 448 kts 115°
2026-04-25 22:48 39.30905 -106.33496 25000 ft 446 kts 115°
2026-04-25 22:48 39.29797 -106.29756 25019 ft 445 kts 115°
2026-04-25 22:48 39.28687 -106.26010 25025 ft 444 kts 115°
2026-04-25 22:49 39.27580 -106.22276 25033 ft 444 kts 115°
2026-04-25 22:49 39.26470 -106.18547 25028 ft 444 kts 115°
2026-04-25 22:49 39.25395 -106.14810 24938 ft 445 kts 110°
2026-04-25 22:49 39.25003 -106.10863 24688 ft 446 kts 88°
2026-04-25 22:50 39.25573 -106.06949 24456 ft 443 kts 76°
2026-04-25 22:50 39.26302 -106.03102 24229 ft 440 kts 77°
2026-04-25 22:50 39.26996 -105.99283 23971 ft 435 kts 77°
2026-04-25 22:50 39.27677 -105.95484 23697 ft 433 kts 78°
2026-04-25 22:51 39.28470 -105.91803 23430 ft 430 kts 76°
2026-04-25 22:51 39.28973 -105.88014 23184 ft 427 kts 84°
2026-04-25 22:51 39.29327 -105.84213 22939 ft 426 kts 81°
2026-04-25 22:51 39.29944 -105.80480 22694 ft 424 kts 76°
2026-04-25 22:52 39.30684 -105.76750 22443 ft 423 kts 76°
2026-04-25 22:52 39.31382 -105.73124 22198 ft 421 kts 76°
2026-04-25 22:52 39.32084 -105.69463 21944 ft 419 kts 76°
2026-04-25 22:52 39.32616 -105.67025 21772 ft 418 kts 70°
2026-04-25 22:53 39.34178 -105.62504 21447 ft 414 kts 63°
2026-04-25 22:53 39.35423 -105.59154 21273 ft 411 kts 64°
2026-04-25 22:53 39.36653 -105.55818 21185 ft 414 kts 64°
2026-04-25 22:53 39.37902 -105.52429 20507 ft 416 kts 64°
2026-04-25 22:54 39.39129 -105.49089 19970 ft 407 kts 64°
2026-04-25 22:54 39.40328 -105.45799 19390 ft 401 kts 64°
2026-04-25 22:54 39.41484 -105.42566 18888 ft 392 kts 68°
2026-04-25 22:54 39.42006 -105.39169 18415 ft 382 kts 91°
2026-04-25 22:55 39.41914 -105.35789 18020 ft 371 kts 92°
2026-04-25 22:55 39.41900 -105.32481 17583 ft 365 kts 92°
2026-04-25 22:55 39.41880 -105.29232 17205 ft 358 kts 92°
2026-04-25 22:55 39.41871 -105.26038 16782 ft 352 kts 91°
2026-04-25 22:56 39.41866 -105.22946 16407 ft 345 kts 91°
2026-04-25 22:56 39.41863 -105.19859 16010 ft 341 kts 91°
2026-04-25 22:56 39.41865 -105.16804 15651 ft 337 kts 91°
2026-04-25 22:56 39.41866 -105.13768 15252 ft 335 kts 91°
2026-04-25 22:57 39.41871 -105.10806 14890 ft 332 kts 91°
2026-04-25 22:57 39.41875 -105.07822 14527 ft 331 kts 91°
2026-04-25 22:57 39.41880 -105.04849 14169 ft 328 kts 91°
2026-04-25 22:57 39.41888 -105.01900 13785 ft 326 kts 91°
2026-04-25 22:58 39.41895 -104.99029 13407 ft 311 kts 91°
2026-04-25 22:58 39.41900 -104.96307 13046 ft 294 kts 91°
2026-04-25 22:58 39.41909 -104.93728 12826 ft 283 kts 89°
2026-04-25 22:58 39.42113 -104.91206 12618 ft 280 kts 83°
2026-04-25 22:59 39.42355 -104.88715 12441 ft 277 kts 84°
2026-04-25 22:59 39.42582 -104.86249 12203 ft 276 kts 84°
2026-04-25 22:59 39.42807 -104.83786 11899 ft 275 kts 84°
2026-04-25 22:59 39.43031 -104.81337 11602 ft 274 kts 84°
2026-04-25 23:00 39.43254 -104.78889 11226 ft 274 kts 84°
2026-04-25 23:00 39.43474 -104.76465 11041 ft 268 kts 84°
2026-04-25 23:00 39.43943 -104.74182 10868 ft 260 kts 64°
2026-04-25 23:00 39.44754 -104.72078 10471 ft 263 kts 54°
2026-04-25 23:01 39.46117 -104.70595 10301 ft 253 kts 25°
2026-04-25 23:01 39.47712 -104.69707 10174 ft 248 kts 24°
2026-04-25 23:01 39.49310 -104.68916 9990 ft 246 kts
2026-04-25 23:01 39.50980 -104.69002 9924 ft 240 kts 352°
2026-04-25 23:02 39.52641 -104.69183 9972 ft 241 kts
2026-04-25 23:02 39.54330 -104.69078 10002 ft 244 kts
2026-04-25 23:02 39.56036 -104.69034 10022 ft 246 kts 359°
2026-04-25 23:02 39.57757 -104.69065 9976 ft 248 kts 360°
2026-04-25 23:03 39.59485 -104.69037 9900 ft 248 kts
2026-04-25 23:03 39.61207 -104.69000 9885 ft 246 kts
2026-04-25 23:03 39.62915 -104.68987 9916 ft 244 kts
2026-04-25 23:03 39.64639 -104.68971 9647 ft 252 kts
2026-04-25 23:04 39.66371 -104.68951 9290 ft 242 kts
2026-04-25 23:04 39.67473 -104.68937 9055 ft 236 kts
2026-04-25 23:04 39.69582 -104.68915 8623 ft 216 kts
2026-04-25 23:04 39.71020 -104.68900 8372 ft 197 kts
2026-04-25 23:05 39.72350 -104.68885 8104 ft 183 kts
2026-04-25 23:05 39.73545 -104.68870 7877 ft 165 kts
2026-04-25 23:05 39.74639 -104.68856 7676 ft 153 kts
2026-04-25 23:05 39.75690 -104.68844 7462 ft 149 kts
2026-04-25 23:06 39.76711 -104.68830 7284 ft 145 kts
2026-04-25 23:06 39.77716 -104.68823 7082 ft 147 kts
2026-04-25 23:06 39.78752 -104.68809 6879 ft 150 kts
2026-04-25 23:06 39.79794 -104.68791 6673 ft 147 kts
2026-04-25 23:07 39.80817 -104.68782 6490 ft 147 kts
2026-04-25 23:07 39.81835 -104.68776 6308 ft 145 kts
2026-04-25 23:07 39.82836 -104.68762 6132 ft 142 kts
2026-04-25 23:07 39.83821 -104.68756 5940 ft 141 kts
2026-04-25 23:08 39.84813 -104.68726 5743 ft 140 kts
2026-04-25 23:08 39.85790 -104.68726 5536 ft 141 kts
2026-04-25 23:08 39.86756 -104.68716 5367 ft 132 kts 356°
2026-04-25 23:08 39.87552 -104.68706 5359 ft 95 kts
2026-04-25 23:09 39.88095 -104.68699 5360 ft 63 kts 360°
2026-04-25 23:09 39.88375 -104.68680 5359 ft 28 kts
2026-04-25 23:09 39.88542 -104.68609 5356 ft 20 kts 29°
2026-04-25 23:09 39.88600 -104.68517 5358 ft 13 kts 103°
2026-04-25 23:10 39.88526 -104.68480 5358 ft 13 kts 181°
2026-04-25 23:10 39.88432 -104.68482 5358 ft 14 kts 180°
2026-04-25 23:10 39.88331 -104.68483 5358 ft 15 kts 180°
2026-04-25 23:10 39.88219 -104.68484 5358 ft 17 kts 180°
2026-04-25 23:11 39.88099 -104.68486 5359 ft 18 kts 181°
2026-04-25 23:11 39.87972 -104.68487 5359 ft 19 kts 180°
2026-04-25 23:11 39.87837 -104.68489 5359 ft 20 kts 180°
2026-04-25 23:11 39.87696 -104.68490 5359 ft 21 kts 180°
2026-04-25 23:12 39.87548 -104.68491 5359 ft 22 kts 181°
2026-04-25 23:12 39.87395 -104.68494 5359 ft 22 kts 180°
2026-04-25 23:12 39.87236 -104.68496 5360 ft 22 kts 180°
2026-04-25 23:12 39.87087 -104.68498 5360 ft 22 kts 181°
2026-04-25 23:13 39.86935 -104.68499 5359 ft 21 kts 180°
2026-04-25 23:13 39.86787 -104.68500 5360 ft 21 kts 180°
2026-04-25 23:13 39.86639 -104.68503 5360 ft 22 kts 180°
2026-04-25 23:13 39.86495 -104.68504 5360 ft 21 kts 180°
2026-04-25 23:14 39.86353 -104.68505 5361 ft 20 kts 180°
2026-04-25 23:14 39.86219 -104.68507 5365 ft 19 kts 181°
2026-04-25 23:14 39.86090 -104.68509 5367 ft 18 kts 180°
2026-04-25 23:14 39.85968 -104.68510 5368 ft 18 kts 180°
2026-04-25 23:15 39.85844 -104.68511 5369 ft 19 kts 181°
2026-04-25 23:15 39.85736 -104.68513 5369 ft 9 kts 179°
2026-04-25 23:15 39.85705 -104.68497 5369 ft 2 kts 139°
2026-04-25 23:15 39.85690 -104.68467 5367 ft 6 kts 109°
2026-04-25 23:16 39.85687 -104.68383 5370 ft 12 kts 90°
2026-04-25 23:16 39.85686 -104.68277 5376 ft 11 kts 90°
2026-04-25 23:16 39.85678 -104.68180 5378 ft 12 kts 109°
2026-04-25 23:16 39.85669 -104.68062 5375 ft 14 kts 90°
2026-04-25 23:17 39.85669 -104.67917 5378 ft 18 kts 91°
2026-04-25 23:17 39.85667 -104.67750 5377 ft 19 kts 91°
2026-04-25 23:17 39.85666 -104.67575 5379 ft 20 kts 90°
2026-04-25 23:17 39.85664 -104.67391 5376 ft 21 kts 90°
2026-04-25 23:18 39.85663 -104.67202 5376 ft 21 kts 90°
2026-04-25 23:18 39.85663 -104.67076 5379 ft 10 kts 85°
2026-04-25 23:18 39.85700 -104.67000 5374 ft 11 kts 19°
2026-04-25 23:18 39.85769 -104.66996 5374 ft 7 kts
2026-04-25 23:19 39.85800 -104.66996 5378 ft 2 kts 359°
2026-04-25 23:19 39.85808 -104.66996 5378 ft 0 kts 359°